Torna al catalogo

NOAA 16 DEB

AttivoSSO
NORAD 41263·DEBRIS·🇺🇸 United States

Lanciato Sep 21, 2000 da Vandenberg Space Force Base

Loading…

Prossimi Passaggi (prossime 24 ore)

TLE

AggiornatoSource: Space-Track

Epoca: Sep 12, 2026, 06:36 UTC

1 41263U 00055FP  26255.27551026  .00003106  00000-0  15118-2 0  9992
2 41263  98.8301 275.6974 0066959 169.2814 190.9806 14.17738631547979

Traccia NOAA 16 DEB in tempo reale con AllMySat

Download on the App Store